Location: Cwmffrwd
(51.8322°N, 4.2892°W)
Time: 05:26:15
(UTC+00:00)

Daily predictions for brighter satellites

Satellite Brightness Start Highest point End
(mag) Time Altitude Azimuth Time Altitude Azimuth Time Altitude Azimuth
Cosmos 1025 Rocket 3.2 00:02:07 10° N 00:06:21 60° ENE 00:06:21 60° ENE
Cosmos 1464 Rocket 3.9 00:05:12 53° S 00:06:49 89° E 00:13:02 10° N
USA 267 3.6 00:02:00 10° ENE 00:08:29 65° NNW 00:14:56 10° W
Cosmos 2360 Rocket 4.5 00:08:12 10° W 00:09:18 11° W 00:10:25 10° WSW
Okean 2 4.4 00:05:37 10° NNW 00:09:13 37° W 00:09:13 37° W
SJ 16-02 3.4 00:09:53 17° E 00:09:53 17° E 00:12:16 10° NE
Cosmos 1538 Rocket 3.8 00:05:12 10° NNW 00:10:25 89° WSW 00:11:04 69° SSE
Okean 2 Rocket 3.4 00:10:41 55° E 00:10:41 55° E 00:15:02 10° NNE
SL-16 R/B 2.6 00:06:00 10° NNW 00:11:39 58° NE 00:13:47 36° ESE
Nadezhda 4 Rocket 3.9 00:07:50 10° N 00:14:10 88° WSW 00:15:44 54° S
Cosmos 1975 3.4 00:15:44 49° WNW 00:15:44 49° WNW 00:19:38 10° N
NOSS 0 Rocket 4.4 00:13:25 10° NW 00:19:17 44° WSW 00:20:10 42° SW
Cosmos 2297 Rocket 2.2 00:28:55 58° SSE 00:29:37 63° ESE 00:35:13 10° NE
Cosmos 2344 4.3 00:21:17 10° NW 00:30:31 73° SW 00:38:10 28° SSE
Sich 1 Rocket 3.7 00:30:37 65° W 00:30:41 65° WNW 00:35:04 10° N
Cosmos 1980 4.1 00:27:36 10° NW 00:32:59 45° WSW 00:33:21 44° WSW
ALOS 2 4.0 00:33:27 27° W 00:33:27 27° W 00:37:03 10° NW
COSMOS 2428 4.3 00:29:17 10° NW 00:33:28 21° W 00:33:49 21° WSW
Cosmos 1092 Rocket 3.9 00:28:39 10° N 00:34:55 85° E 00:36:34 52° SSE
In-Cosmos 22 4.0 00:29:55 10° NNW 00:35:30 83° W 00:36:23 64° S
YAOGAN 11 4.2 00:35:46 69° WSW 00:35:48 69° WSW 00:40:23 10° NNW
DNEPR-1 R/B 4.2 00:33:20 10° NW 00:38:57 51° WSW 00:38:57 51° WSW
Cosmos 2034 Rocket 4.0 00:37:47 50° SSW 00:39:32 76° WNW 00:45:55 10° N
Cosmos 2237 Rocket 2.7 00:35:40 10° NW 00:40:57 41° WSW 00:41:12 41° WSW
Cosmos 2219 3.1 00:41:47 61° SSW 00:42:51 87° ESE 00:48:30 10° NNE
Cosmos 2151 Rocket 3.5 00:43:30 81° E 00:43:30 81° E 00:47:54 10° NNE
Helios 1A 3.7 00:45:29 44° W 00:45:29 44° W 00:49:09 10° NNW
Meteor 1-24 Rocket 4.5 00:41:52 10° N 00:47:02 43° ENE 00:49:07 30° ESE
Cosmos 1536 Rocket 3.6 00:45:40 10° NNW 00:49:46 64° W 00:49:46 64° W
Cosmos 1680 Rocket 3.6 00:44:55 10° NNW 00:50:11 73° ENE 00:51:28 50° SE
Lacrosse 4 Rocket 3.9 00:47:12 10° WNW 00:50:12 18° NNW 00:53:10 10° NNE
Cosmos 1674 3.0 00:46:39 10° N 00:49:53 61° NNE 00:49:53 61° NNE
CZ-4 R/B 3.9 00:45:40 10° NNE 00:50:41 69° ESE 00:51:18 62° SSE
Cosmos 2333 Rocket 4.3 00:48:45 10° WNW 00:51:06 13° W 00:51:29 13° W
Cosmos 1461 3.8 00:55:29 41° ESE 00:55:29 41° ESE 00:59:18 10° NE
Cosmos 1777 Rocket 4.1 00:56:11 53° WSW 00:57:17 69° WNW 01:02:37 10° NNE
TIMED 4.4 00:53:03 10° NNW 00:57:28 81° ENE 00:57:37 79° E
ATLAS 3B R/B 4.0 00:54:42 10° W 01:00:44 36° NNW 01:06:55 10° NE
Iridium 51 4.4 00:58:39 10° N 01:02:17 68° NNW 01:02:17 68° NNW
PSLV R/B 3.7 01:00:56 10° NNE 01:05:41 81° WNW 01:06:13 69° SW
CZ-2D R/B 3.6 01:01:25 10° NE 01:06:04 27° E 01:08:00 22° SE
Cosmos 1707 4.5 01:07:10 10° NW 01:09:41 23° WNW 01:09:41 23° WNW
Cosmos 1943 4.2 01:05:20 10° NNW 01:10:43 44° NE 01:16:05 10° ESE
Cosmos 1766 3.7 01:11:18 53° E 01:11:18 53° E 01:14:54 10° NNE
SL-16 R/B 3.0 01:09:25 24° SE 01:13:09 57° ENE 01:19:16 10° N
Cosmos 1607 4.2 01:07:32 10° NW 01:13:41 48° WSW 01:14:32 45° SW
Cosmos 1733 3.8 01:14:34 49° E 01:14:34 49° E 01:18:10 10° NNE
Cosmos 1626 2.5 01:11:42 10° N 01:15:17 57° ENE 01:15:17 57° ENE
Cosmos 1655 Rocket 4.3 01:09:15 10° N 01:15:28 60° ENE 01:18:27 31° SE
Uosat 12 SS-18 rocket 4.5 01:16:49 46° W 01:17:55 60° NW 01:22:15 10° NE
Cosmos 2227 Rocket 2.3 01:18:31 47° SW 01:20:10 72° WNW 01:25:52 10° NNE
Cosmos 923 Rocket 4.2 01:18:04 10° NNW 01:23:15 52° WSW 01:23:41 51° SW
Meteor 2-5 Rocket 3.6 01:18:00 10° NNW 01:23:39 82° W 01:25:04 52° S
Cosmos 1470 4.3 01:24:19 26° ESE 01:24:57 27° E 01:28:21 10° NNE
Helios 1B rocket 2.3 01:21:45 10° NNE 01:25:51 75° WNW 01:25:58 74° W
Landsat 4 4.4 01:22:45 10° N 01:26:18 44° WNW 01:26:18 44° WNW
Meteor 1-22 Rocket 4.4 01:25:04 42° SSE 01:26:30 56° E 01:31:48 10° NNE
Cosmos 2026 Rocket 4.1 01:21:33 10° NNW 01:27:31 56° W 01:29:04 44° SW
Cosmos 2279 Rocket 3.9 01:29:43 44° S 01:31:50 82° E 01:38:05 10° NNE
Cosmos 1805 3.2 01:32:08 75° WNW 01:32:08 75° WNW 01:35:56 10° N
Resurs 1-4 Rocket 2.7 01:34:40 10° NNE 01:39:46 47° E 01:41:36 34° SSE
Cosmos 2180 Rocket 4.5 01:39:58 41° S 01:42:17 78° E 01:48:27 10° NNE
Cosmos 2098 Rocket 4.0 01:37:35 10° N 01:43:02 72° E 01:46:32 29° SSE
Cosmos 2082 3.7 01:44:36 44° SW 01:46:24 76° WNW 01:52:04 10° NNE
Okean 1 Rocket 3.4 01:46:41 48° W 01:47:10 51° WNW 01:51:28 10° N
SJ 16-02 1.4 01:46:52 58° WSW 01:47:31 68° WNW 01:51:56 10° NNE
Cosmos 1634 Rocket 4.3 01:45:25 37° SW 01:47:34 54° WNW 01:53:40 10° N
NOSS 3-1 (C) 3.4 01:48:09 45° SSW 01:49:55 68° SE 01:56:25 10° NE
USA 267 3.8 01:44:44 10° E 01:51:08 59° N 01:57:32 10° WNW
SL-14 R/B 3.3 01:48:48 10° NNW 01:52:33 61° W 01:52:33 61° W
Meteor 2-19 Rocket 4.4 01:46:54 10° NNW 01:53:04 75° W 01:55:33 38° S
SL-16 R/B 3.1 01:50:35 10° NW 01:55:29 30° WSW 01:55:38 30° WSW
Cosmos 2263 Rocket 2.9 01:56:40 30° SSE 01:58:44 43° ESE 02:03:59 10° NE
Cosmos 724 4.4 01:55:46 10° NW 02:01:36 55° WSW 02:03:52 36° S
MOZ.5/SAFIR/RUBIN 5/SL-8 3.9 02:00:53 49° SW 02:01:39 55° W 02:06:19 10° NNW
CZ-4C R/B 2.9 02:05:30 75° SW 02:05:37 76° WSW 02:09:19 10° NNW
Okean 1-7 Rocket 3.6 02:03:20 10° NNW 02:07:45 67° W 02:08:38 52° SSW
SL-19 R/B 4.3 02:01:56 10° NNE 02:07:47 71° WNW 02:09:58 38° SW
Cosmos 1937 Rocket 3.5 02:07:18 42° SSW 02:09:10 81° ESE 02:14:31 10° NNE
NOSS 2-3 (D) 4.1 02:08:30 41° SSE 02:09:31 50° SE 02:14:29 10° NE
COBE Rocket 3.9 02:08:33 28° SSE 02:10:56 71° ENE 02:15:36 10° N
Cosmos 1626 Rocket 3.7 02:06:48 10° N 02:11:08 67° ENE 02:13:03 31° SSE
ADEOS II 3.2 02:06:25 10° NNE 02:11:19 37° E 02:14:31 19° SSE
Cosmos 990 Rocket 4.0 02:09:50 41° SW 02:11:34 71° WNW 02:16:46 10° NNE
Cosmos 1455 Rocket 3.0 02:12:38 49° SSW 02:13:48 85° W 02:18:18 10° N
Cosmos 2297 Rocket 3.5 02:10:42 18° W 02:14:04 32° NW 02:19:08 10° NNE
CZ-4B R/B 4.1 02:09:48 10° NNE 02:14:24 46° E 02:16:40 26° SSE
ATLAS CENTAUR R/B 3.1 02:13:46 19° SE 02:14:40 20° ESE 02:17:37 10° ENE
Cosmos 1726 3.1 02:14:19 32° SE 02:15:23 41° E 02:18:51 10° NNE
UNK 3.9 02:17:20 43° SW 02:18:25 54° W 02:23:03 10° NNW
Cosmos 2266 Rocket 4.0 02:13:31 10° NNW 02:19:49 68° W 02:22:57 31° SSW
Meteor 1-29 4.4 02:19:31 10° N 02:22:27 26° WNW 02:22:42 26° WNW
Cosmos 1892 Rocket 4.3 02:20:23 10° NNW 02:24:28 36° W 02:24:59 35° WSW
GEOS 3 Rocket 3.9 02:20:39 10° NE 02:26:01 59° SE 02:28:25 32° SSW
Cosmos 1898 Rocket 3.7 02:24:13 35° SW 02:26:18 60° WNW 02:31:28 10° NNE
Meteor 1-21 Rocket 4.2 02:21:55 10° NNW 02:27:30 83° ENE 02:31:40 18° SSE
Meteor 2-21 4.4 02:21:25 10° N 02:27:32 86° E 02:32:12 18° SSE
USA 229 DEB 3.6 02:24:10 31° SW 02:27:41 88° NW 02:34:43 10° NE
USA 229 3.6 02:24:18 31° SW 02:27:47 89° NW 02:34:48 10° NE
CBERS-1 4.5 02:23:09 10° NNE 02:28:12 55° E 02:31:10 24° S
Meteor 1-24 Rocket 4.4 02:25:15 10° NNW 02:30:01 33° W 02:31:16 29° WSW
Meteor 2-10 4.4 02:27:12 26° S 02:30:26 68° E 02:36:08 10° NNE
ARIANE 5 R/B 4.0 02:26:59 10° NNE 02:31:39 31° E 02:36:11 10° SSE
Cosmos 1932 4.5 02:25:27 10° NW 02:31:54 65° SW 02:38:11 10° SSE
Cosmos 1758 Rocket 4.5 02:29:41 10° N 02:33:52 46° ENE 02:38:03 10° SSE
Cosmos 1461 4.1 02:31:50 23° W 02:34:08 40° NW 02:38:33 10° NE
Cosmos 1603 3.9 02:30:51 10° NW 02:36:21 48° WSW 02:39:05 27° S
NOSS 2-3 (C) 3.7 02:35:34 38° SW 02:37:19 81° SE 02:42:39 10° NE
NOSS 3-1 (A) 3.3 02:36:02 31° SW 02:38:57 85° SE 02:45:37 10° NE
Cosmos 494 Rocket 4.4 02:37:40 10° NNW 02:42:49 64° ENE 02:47:58 10° SE
MINOTAUR IV R/B 4.5 02:38:26 10° NNW 02:42:56 71° WSW 02:46:16 17° SSE
Cosmos 1340 Rocket 3.1 02:42:43 38° WSW 02:43:48 51° WNW 02:47:40 10° N
Cosmos 2150 Rocket 4.4 02:42:28 23° S 02:45:33 56° ESE 02:50:43 10° NNE
Cosmos 1758 3.5 02:44:28 38° SW 02:45:40 55° WNW 02:49:36 10° N
CZ-2D R/B 2.4 02:41:04 10° N 02:46:28 58° WNW 02:49:19 28° SW
H-2A R/B 4.1 02:45:50 10° ESE 02:49:19 27° ENE 02:52:49 10° N
Cosmos 1703 3.5 02:45:33 10° N 02:49:31 68° ENE 02:52:42 15° SSE
Cosmos 1626 4.3 02:48:12 10° NW 02:49:48 14° WNW 02:49:48 14° WNW
Cosmos 1825 Rocket 4.2 02:48:12 10° N 02:52:29 56° ENE 02:56:44 10° SSE
ATLAS 3B R/B 4.5 02:47:24 10° NW 02:53:14 31° N 02:59:13 10° ENE
Cosmos 1943 3.6 02:49:32 10° NW 02:54:46 41° WSW 02:57:52 22° SSW
SL-16 R/B 3.3 02:54:31 24° SW 02:57:05 33° W 03:02:40 10° NNW
Nadezhda 2 Rocket 4.4 02:51:10 10° NNW 02:57:23 76° W 03:02:51 13° S
Cosmos 1125 Rocket 4.2 02:54:00 17° S 02:57:51 48° ESE 03:02:55 10° NE
USA 215 4.4 02:53:29 10° ENE 02:59:11 31° SE 03:03:50 14° S
IRS-1C 4.4 02:54:14 10° NNE 02:59:34 65° ESE 03:03:50 16° S
Cosmos 1470 3.8 02:59:40 26° WSW 03:00:55 32° WNW 03:04:33 10° N
Cosmos 1953 2.3 02:59:36 30° SSW 03:01:30 71° WNW 03:05:35 10° N
Cosmos 1544 Rocket 4.2 02:59:45 28° SW 03:01:37 42° WNW 03:05:53 10° N
IRS-1D 3.5 02:57:39 10° NNE 03:02:46 79° WNW 03:06:07 22° SSW
Cosmos 1328 3.8 02:59:21 10° N 03:03:22 81° E 03:07:02 12° SSE
Cosmos 1953 Rocket 4.5 02:59:31 10° N 03:03:56 51° ENE 03:08:17 10° SSE
Cosmos 2227 Rocket 4.1 03:01:00 10° W 03:05:16 21° NNW 03:09:31 10° NNE
NPP 4.1 03:00:13 10° N 03:05:24 48° WNW 03:08:34 22° SW
AQUA 4.3 03:06:05 10° N 03:10:39 46° WNW 03:13:19 23° SW
Cosmos 1602 Rocket 4.2 03:15:25 10° NNW 03:19:23 35° W 03:21:31 22° SW
Resurs 1-4 Rocket 3.1 03:14:47 10° N 03:19:27 33° WNW 03:22:40 17° WSW
Atlas Centaur 2 4.4 03:21:18 10° S 03:22:19 10° S 03:23:22 10° SSE
Cosmos 1606 Rocket 3.9 03:19:25 11° S 03:23:39 67° E 03:28:06 10° NNE
CENTAUR R/B 4.0 03:16:40 10° NW 03:24:05 52° NNE 03:32:27 10° ESE
SJ 16-02 3.7 03:24:48 10° WNW 03:26:59 13° NW 03:29:11 10° NNW
IDEFIX/ARIANE 42P 3.0 03:23:02 10° NNE 03:28:13 61° ESE 03:33:23 10° S
USA 267 3.3 03:27:23 10° ESE 03:33:57 88° NNE 03:40:33 10° WNW
Cosmos 1908 3.3 03:31:24 18° SSW 03:34:13 63° WNW 03:38:07 10° N
Cosmos 1726 Rocket 3.8 03:33:53 10° S 03:38:20 75° E 03:42:48 10° NNE
IRS-P3 4.3 03:33:11 10° N 03:38:30 63° WNW 03:43:08 13° SSW
Cosmos 2228 3.0 03:36:23 11° SSW 03:40:34 84° WNW 03:45:00 10° N
NOSS 3-1 (C) 4.4 03:35:35 10° W 03:41:11 43° NNW 03:47:49 10° NE
Cosmos 2298 Rocket 4.4 03:38:29 16° SW 03:42:38 54° WNW 03:47:53 10° NNE
Cosmos 2263 Rocket 2.9 03:38:22 15° WSW 03:42:43 42° NW 03:48:01 10° NNE
Cosmos 1844 4.4 03:38:09 10° S 03:43:43 52° ESE 03:49:17 10° NE
Meteor 1-28 Rocket 3.9 03:41:32 14° SSW 03:44:20 34° W 03:47:51 10° NNW
Cosmos 1386 Rocket 4.4 03:39:09 10° NNW 03:45:10 76° W 03:51:10 10° S
CZ-2C R/B 3.2 03:44:02 10° NNE 03:47:50 61° ESE 03:51:33 10° S
SL-08 R/B 4.0 03:44:37 10° SSW 03:49:10 36° W 03:53:45 10° NNW
Cosmos 1726 3.8 03:48:49 13° WSW 03:50:47 19° WNW 03:53:28 10° NNW
ADEOS II 2.8 03:46:10 10° N 03:51:03 40° WNW 03:55:28 12° SW
Cosmos 1356 Rocket 3.4 03:46:57 10° SSW 03:51:06 89° WNW 03:55:12 10° NNE
Spot 4 Rocket 4.1 03:47:22 10° NNE 03:52:35 86° WNW 03:57:44 10° SSW
CZ-4B R/B 4.5 03:48:52 10° N 03:52:56 29° WNW 03:56:36 12° WSW
ATLAS CENTAUR R/B 1.4 03:49:57 15° SW 03:53:15 63° NW 03:57:05 10° NE
Cosmos 1300 2.8 03:50:28 10° S 03:54:16 76° E 03:58:06 10° NNE
ERS-2 2.1 03:54:02 10° SSE 03:57:41 87° WSW 04:01:23 10° NNW
Cosmos 1269 Rocket 4.1 03:53:18 10° NNW 03:58:29 57° WSW 04:03:39 10° S
CZ-4C R/B 2.9 03:57:17 10° S 04:00:34 61° WSW 04:03:59 10° NNW
Cosmos 2285 Rocket 4.3 03:55:52 12° SW 04:01:38 53° WNW 04:07:50 10° NNE
GEOS 3 Rocket 4.4 03:58:49 10° NE 04:03:56 45° NNW 04:09:03 10° WSW
Cosmos 2278 Rocket 4.4 04:00:48 10° SSE 04:05:04 23° ESE 04:09:21 10° NE
Cosmos 1844 Rocket 2.7 03:59:49 10° SSW 04:05:24 85° ESE 04:11:01 10° NNE
Cosmos 2251 Rocket 4.3 04:00:22 10° NNW 04:05:42 59° ENE 04:11:01 10° SE
Cosmos 1553 Rocket 4.2 04:00:35 10° SSW 04:06:30 52° WNW 04:12:32 10° N
Cosmos 1833 Rocket 3.7 04:01:55 10° NNW 04:07:27 52° NE 04:12:57 10° SE
NOSS 3-2 (A) 4.1 04:01:38 10° NW 04:08:58 89° SW 04:17:21 10° SE
NOSS 2-2 (C) 3.9 04:06:06 10° SSW 04:09:33 48° SE 04:13:29 10° NE
Cosmos 2084 4.0 04:05:20 10° WSW 04:09:35 53° NW 04:13:58 10° NE
Lacrosse 5 rocket 4.1 04:08:15 10° SSE 04:10:35 14° ESE 04:12:57 10° E
ARIANE 5 R/B 3.0 04:05:55 10° N 04:10:56 47° WNW 04:15:55 10° SW
Cosmos 1745 Rocket 4.3 04:08:11 10° NNW 04:14:08 46° W 04:20:00 10° SSW
SeaSat 1 4.0 04:09:47 10° NE 04:14:17 34° ESE 04:18:44 10° S
NOSS 8 (H) 4.1 04:11:27 10° SW 04:14:28 83° NW 04:17:35 10° NE
NOSS 3-2 (C) 4.3 04:11:47 10° NW 04:19:05 79° NE 04:27:25 10° SE
Cosmos 1867 3.6 04:16:44 10° NW 04:22:11 70° SW 04:27:36 10° SSE
Cosmos 2058 Rocket 3.2 04:20:38 10° SSW 04:25:02 61° WNW 04:29:27 10° N
H-2A R/B 2.5 04:21:24 10° SSW 04:25:11 37° W 04:29:02 10° NNW
CZ-2D R/B 4.2 04:22:50 10° NNW 04:25:28 14° NW 04:28:05 10° WNW
